Rbgn^[z[y[W
メイン
   新天体発見情報
     Comet C/2017 E4 (Lovejoy)
投稿するにはまず登録を

スレッド表示 | 新しいものから 前のトピック | 次のトピック | 下へ
投稿者 スレッド
佐藤裕久
投稿日時: 2017-3-18 8:14
モデレータ
登録日: 2005-6-12
居住地: 日本
投稿: 2505
オンライン
Comet C/2017 E4 (Lovejoy)

Terry James Lovejoy (Birkdale, QLD, オ−ストラリア)の通報によると、Celestron C14 f/1.9反射望
遠鏡 + QHY9 カメラで得た3月9.684日UTから5分間隔の8秒露出3枚から、拡散した彗星を発見した。
中央集光のあるかすかな16等で、拡散したコマは1'よりもほんのわずかであった。
小惑星センターのPCCP webpageに公表後、M. Mattiazzo (Swan Hill, ビクトリア州, オーストラリア;、
3月10.7日UT、Celestron C11 f/3.3反射望遠鏡で得た30秒露出の6スタックから、約1'の拡散したコマ
が見え、核状集光のr光度は14.5等で、明かな尾はなかった)、佐藤英貴氏(東京都文京区, iTelescope
天文台,3月10.8日UT, 0.40-m f/6.5 アストログラフ+輝度フィルター, Siding Spring, 遠隔操作:30秒
露出の10スタックから、強い集光した丸い2'.8 のコマがあるが明かな尾はない。85".6の円形範囲で測定
したこの彗星のw-バンド光度は11.8等であった)や門田健一氏(埼玉県上尾市, 0.25-m f/5 反射望遠鏡;
3月11.84日、低空の薄明、12.7等の中央集光のある1'.5の拡散状を検出。尾はない)らCCD位置観測者に
よって彗星状と観測された。

発見位置は次のとおり、

     2017 UT             R.A. (2000) Decl.       Mag.   Observer
     Mar.  9.68448   18 50 54.15   -32 58 34.3   15.0   Lovejoy
           9.68767   18 50 55.21   -32 58 25.2   14.7     "
           9.69095   18 50 56.29   -32 58 14.9   15.1     "

暫定放物線軌道要素と位置推算表は次のとおり、

Orbital elements:
    C/2017 E4 (Lovejoy)
T 2017 Apr. 23.29176 TT                                 MPCW
q   0.4935734            (2000.0)            P               Q
                   Peri.   87.21538     -0.01433707     +0.72950774
                   Node   223.16867     -0.44824588     +0.60663364
e   1.0            Incl.   88.23093     +0.89379532     +0.31593367
>From 98 observations 2017 Mar. 9-13.

Ephemeris:
    C/2017 E4 (Lovejoy)
Date    TT    R. A. (2000) Decl.     Delta      r     Elong.  Phase   m1
2017 02 11    17 09 27.3 -44 44 18   1.7006  1.5474    64.0    35.0  20.0
...
2017 02 26    17 59 25.8 -40 24 39   1.2808  1.3002    68.5    45.1  18.7
...
2017 03 06    18 32 56.6 -35 57 01   1.0592  1.1645    69.1    52.7  17.8
...
2017 03 12    19 03 12.2 -30 41 30   0.9014  1.0613    67.9    60.2  17.0
2017 03 13    19 08 48.1 -29 35 10   0.8764  1.0440    67.5    61.6  16.9
2017 03 14    19 14 34.8 -28 24 04   0.8520  1.0267    67.1    63.1  16.8
...
2017 03 20    19 53 34.2 -19 18 05   0.7202  0.9229    62.7    73.4  15.9
...
2017 03 28    20 59 16.4 -00 58 40   0.6138  0.7863    52.0    90.1  14.9
...
2017 04 12    23 35 06.4 +32 02 45   0.7722  0.5642    34.0    95.9  14.0

(CBET 4373、MPEC 2017-E86)

スレッド表示 | 新しいものから 前のトピック | 次のトピック | トップ

投稿するにはまず登録を
 
© 1999 Tsutomu Seki.